RH
14 14 17 24 18 15 15 14 13 18 20 13 12 10 14 19 21 21 20 21 21 17 15 13 12 11 10 10 11 10 10 9 9 9 10 10 11 11 12 15 19 21 23 26
18 15 25 20 21 20 18 17 16 19 27 17 13 9 10 16 20 22 21 21 20 18 16 14 12 11 11 10 10 10 10 10 10 11 11 12 12 12 14 18 22 24 25 27
22 22 27 26 30 25 23 21 26 25 29 21 19 10 13 22 24 23 26 27 26 24 20 17 15 12 11 11 11 11 11 11 12 12 12 13 13 14 17 22 23 24 26 27
25 31 40 34 34 49 25 41 40 36 36 26 27 14 15 24 29 29 23 24 26 27 26 24 22 19 16 14 13 13 13 13 13 13 14 14 14 15 18 21 23 26 26 27
43 45 47 43 48 48 39 45 44 44 41 36 29 31 24 28 29 30 29 30 31 31 30 28 27 24 21 18 16 16 15 15 15 15 14 14 15 16 17 20 25 26 27 28
49 49 46 48 48 49 47 46 47 45 44 40 33 43 37 34 34 36 35 35 35 34 34 32 30 28 25 21 19 17 16 16 16 16 15 15 16 16 19 22 27 27 27 35
52 51 53 54 54 53 53 53 54 52 50 47 46 49 47 42 41 45 45 42 43 42 40 38 36 32 27 21 18 17 16 16 16 15 16 16 17 17 20 25 31 36 42 46
55 53 54 55 54 54 55 52 51 50 50 50 51 50 48 47 44 45 47 44 42 39 37 34 32 30 27 22 19 18 18 17 17 17 17 17 17 16 18 27 42 48 55 55
22 20 22 25 25 29 34 39 43 46 48 51 54 53 52 51 49 47 45 42 39 35 32 30 28 26 23 21 19 20 21 22 22 22 20 18 18 17 20 32 48 60 65 65
41 37 39 46 56 45 52 50 48 53 55 49 50 48 42 46 38 37 34 32 28 26 26 25 24 22 21 20 19 18 17 17 18 22 23 22 23 24 32 50 63 74 77 76
3 6 16 21 31 42 62 85 100 100 100 95 79 57 44 46 40 35 30 25 23 23 23 24 24 22 26 30 26 24 25 34 41 35 37 39 42 40 47 59 71 79 87 88
3 3 2 3 3 3 5 45 88 100 98 98 99 99 66 70 76 74 72 68 74 82 85 80 75 64 56 57 64 72 77 83 92 82 76 89 100 91 88 82 82 95 100 100
4 4 3 2 2 3 4 28 93 100 100 100 100 99 84 85 91 96 99 99 95 95 100 100 100 100 100 99 97 97 100 100 100 100 100 100 100 100 99 93 98 100 100 100
7 6 6 5 4 4 4 6 83 100 100 99 100 100 99 95 89 81 81 85 92 99 100 100 100 100 100 100 100 100 99 99 100 100 100 100 100 100 100 100 100 97 98 100
11 10 10 8 7 5 4 4 3 6 69 100 100 100 100 100 100 100 100 100 100 100 100 100 100 100 100 100 98 94 98 100 100 100 100 100 100 100 100 100 100 100 100 100
17 14 12 10 7 6 4 4 3 3 18 100 100 100 100 100 100 100 100 100 100 100 100 100 100 100 100 100 100 100 100 100 100 100 100 100 100 100 100 98 95 99 100 100
15 9 8 8 7 7 6 6 6 6 8 44 92 100 100 100 100 100 100 100 100 100 100 100 100 100 100 100 100 100 100 99 100 100 100 100 100 100 100 100 100 100 100 100
8 9 12 15 24 30 37 30 25 22 24 34 44 48 89 100 100 98 96 99 98 96 99 100 99 98 96 98 100 100 100 100 100 100 100 100 100 100 99 96 98 100 100 100
15 22 36 58 88 89 65 69 74 78 77 86 100 99 97 96 93 94 97 94 100 100 100 100 95 98 100 100 99 96 85 92 99 100 99 97 94 95 96 98 100 100 100 99
36 43 76 95 91 68 59 62 60 59 50 53 54 58 60 58 57 49 52 53 54 56 61 67 67 68 72 77 83 78 80 78 79 79 84 85 69 72 71 59 82 93 95 89
63 90 100 100 89 71 70 75 73 65 60 57 54 53 55 53 56 74 62 55 46 42 36 33 33 32 30 32 37 35 33 33 32 28 28 28 28 32 33 34 33 32 40 98
57 56 69 83 99 100 100 100 99 100 94 97 89 82 85 81 79 78 85 83 77 60 55 52 49 46 40 36 40 71 71 70 63 57 67 72 62 56 55 63 75 76 76 86
85 94 92 94 99 100 100 100 98 93 89 85 82 82 82 85 88 86 85 83 78 76 80 82 80 80 84 82 76 76 80 78 76 71 69 66 64 66 69 69 74 83 87 88
96 100 100 99 100 100 100 99 90 85 76 73 73 78 77 72 78 76 74 73 72 72 67 64 64 64 60 53 54 55 56 49 42 38 34 28 22 21 25 33 35 40 49 58
100 100 100 100 100 99 90 87 85 86 81 77 73 65 60 56 51 47 43 38 33 29 25 23 21 19 18 17 16 16 15 14 14 14 14 14 13 13 13 13 13 12 12 12
100 100 100 100 87 78 79 80 73 61 48 40 34 30 27 24 22 21 21 20 20 20 20 20 20 20 21 21 22 23 22 21 20 20 20 20 19 19 18 17 16 16 14 14
Wind_Speed
32 32 25 26 33 34 36 36 36 30 33 41 37 37 30 31 33 32 30 31 31 33 31 32 30 29 29 28 31 34 34 35 34 32 32 31 29 29 30 30 30 30 31 31
33 33 28 33 35 36 38 38 37 35 36 44 43 42 38 31 30 31 31 30 32 33 31 31 30 30 30 31 32 33 35 37 35 34 34 33 31 32 32 33 33 31 32 34
36 35 33 35 36 39 39 41 40 42 41 44 46 49 43 35 30 30 29 32 31 32 31 31 31 32 33 34 35 36 37 39 37 37 37 36 35 36 36 36 36 34 34 36
39 36 37 39 39 42 44 43 46 46 47 47 46 53 47 35 30 36 38 39 37 35 35 35 35 36 37 38 40 39 40 42 41 42 41 40 39 39 40 41 40 38 38 39
39 40 40 42 41 45 45 46 46 46 46 48 47 52 50 42 38 40 43 43 41 39 39 41 40 40 42 44 45 43 44 45 45 44 44 44 43 45 46 46 44 43 44 44
39 41 42 42 42 42 45 46 46 48 49 54 49 51 52 48 48 47 47 46 45 43 44 46 45 44 44 46 48 49 49 48 47 47 48 48 48 49 49 49 48 48 47 47
47 46 46 47 48 47 47 50 52 55 56 57 53 56 55 55 54 54 53 50 49 48 48 48 48 48 47 48 49 50 50 51 51 51 51 51 51 51 52 51 50 49 49 49
53 50 50 50 51 53 53 54 56 61 60 59 59 62 62 60 59 60 60 58 57 56 54 53 53 52 52 51 49 48 50 53 54 53 54 54 54 54 54 53 51 51 50 51
56 56 55 55 56 56 57 58 55 57 60 62 63 64 64 62 62 63 62 62 62 62 58 58 58 59 56 55 53 53 53 54 53 53 56 55 55 56 56 56 55 52 53 53
55 59 57 57 56 57 57 58 58 57 59 62 67 67 66 67 66 66 65 66 65 63 62 62 61 62 60 59 58 56 57 57 57 58 59 59 58 58 57 56 57 56 56 56
53 59 60 60 59 61 60 60 60 60 62 65 66 70 69 68 70 70 69 69 68 66 65 63 62 62 63 60 59 59 58 56 60 59 60 60 60 60 59 57 58 59 59 59
50 58 63 65 61 61 66 67 65 64 66 68 67 69 70 68 68 67 67 67 66 66 64 63 63 64 64 63 62 61 58 59 62 64 60 58 58 58 58 59 61 62 62 64
54 56 59 61 62 63 64 65 65 64 67 68 67 70 69 69 69 68 68 68 68 68 67 66 64 63 64 65 65 64 63 64 66 66 63 63 63 63 63 62 63 65 64 63
63 63 61 60 61 66 66 64 57 60 67 68 71 72 73 71 67 69 69 68 68 67 66 65 66 66 65 66 68 70 71 70 71 70 65 65 65 64 63 63 64 65 64 64
68 68 66 62 59 64 68 69 69 71 74 68 71 67 64 65 64 65 66 72 73 73 72 68 66 69 71 71 71 69 70 70 71 73 73 65 66 67 69 70 69 70 69 69
67 67 66 63 64 64 67 68 71 73 70 71 75 72 75 70 60 55 54 54 57 59 60 65 68 69 69 70 70 72 76 78 79 74 71 73 75 74 74 73 73 75 78 72
62 63 63 62 57 55 59 58 59 63 66 73 80 79 80 77 74 69 71 69 67 68 67 65 65 67 68 71 77 85 83 86 89 80 83 80 79 78 80 83 86 88 87 88
55 51 47 45 40 42 43 44 45 47 49 50 49 50 52 52 52 66 72 69 70 69 69 74 78 80 77 80 81 85 89 87 85 81 82 82 81 82 82 86 86 84 84 87
41 36 36 35 34 37 39 39 38 39 42 44 43 44 45 46 47 48 50 54 53 53 53 56 59 60 62 63 65 70 80 80 80 76 74 76 77 81 84 89 85 92 94 94
32 33 35 39 41 42 37 37 39 39 39 40 41 42 43 44 47 51 50 51 54 56 57 60 63 65 65 66 68 69 71 72 74 76 76 76 75 75 74 73 73 73 74 75
29 32 35 37 36 36 35 34 34 36 37 38 39 40 42 43 43 43 46 48 50 52 54 55 56 57 59 59 60 61 62 62 64 64 65 66 67 69 71 73 74 75 78 81
27 27 25 25 24 25 26 27 30 30 30 31 34 35 37 39 41 42 44 46 47 49 50 52 52 53 55 56 58 58 57 56 55 56 57 58 59 60 60 62 64 67 69 70
19 18 20 21 21 22 22 24 25 26 27 28 30 32 32 34 37 39 41 43 44 46 47 49 51 53 54 56 57 56 57 58 57 58 59 60 60 61 61 60 60 60 59 59
18 20 22 22 24 25 26 28 31 34 35 37 37 38 40 40 42 43 45 46 48 49 51 52 53 54 55 57 59 60 61 61 61 61 61 62 62 63 64 65 65 64 64 64
24 22 23 24 27 31 34 36 37 39 39 39 40 41 41 42 43 45 46 48 49 51 52 53 54 55 56 58 59 61 62 63 62 63 63 64 64 64 65 65 66 66 66 66
21 23 25 29 34 37 39 40 38 38 39 41 41 43 46 48 48 49 51 53 55 56 58 59 60 62 63 64 64 66 67 68 68 68 68 69 69 69 69 70 70 71 72 72
Wind_Direction
265 269 277 267 266 271 272 272 272 276 275 273 271 268 269 268 273 273 270 268 267 266 267 268 267 265 262 257 255 256 258 259 260 261 261 263 265 270 271 274 280 287 291 293
265 268 262 266 269 270 272 275 276 274 273 275 275 271 272 271 270 271 269 270 270 272 270 268 265 261 259 257 255 255 257 259 260 261 261 264 267 267 268 272 277 284 288 291
263 265 261 264 266 269 270 272 272 272 268 273 276 274 274 274 271 265 266 264 264 265 264 263 263 261 260 258 256 254 255 258 260 260 262 264 264 264 266 270 275 279 284 286
263 264 265 264 265 268 267 270 270 270 270 270 270 273 272 269 265 259 258 257 256 255 256 257 257 256 254 254 254 255 255 256 257 259 262 263 264 265 265 268 272 276 278 280
262 262 262 263 265 267 268 267 268 269 269 268 269 271 273 269 263 260 261 259 261 259 257 258 256 254 253 253 254 254 253 254 257 260 262 263 264 264 266 267 269 272 274 276
259 262 264 264 262 263 266 267 268 267 268 266 270 272 272 273 269 265 262 263 264 263 266 262 259 257 255 254 252 251 253 255 256 258 259 261 262 264 265 266 268 270 273 275
265 265 266 268 267 266 267 269 271 268 267 270 270 271 271 270 271 273 271 269 267 264 263 263 262 262 258 255 254 254 256 257 258 260 261 262 263 264 265 267 268 270 273 273
267 263 266 267 268 269 269 269 270 273 273 274 271 271 272 270 269 271 275 274 271 269 267 265 263 261 261 260 260 262 265 265 264 264 264 265 265 266 266 267 267 268 269 270
273 270 270 268 268 268 268 269 271 271 271 270 269 270 272 272 271 271 272 273 273 275 270 267 266 268 268 265 265 262 260 260 263 265 266 267 267 267 268 267 268 267 267 267
276 273 270 270 271 271 274 273 272 270 270 270 271 270 269 270 270 270 269 270 271 272 273 273 271 270 269 268 266 265 265 265 264 265 266 267 266 265 265 265 266 265 264 264
286 283 276 275 273 271 269 268 267 268 266 268 270 267 267 267 268 269 270 270 270 271 272 272 272 271 271 268 265 265 264 262 263 264 264 264 263 264 264 263 264 263 261 261
282 282 282 281 280 277 272 268 268 270 270 267 267 266 266 266 267 268 269 269 270 271 270 269 268 268 267 266 265 265 262 259 258 266 266 264 263 264 265 263 261 259 259 260
289 284 284 282 277 274 272 267 265 266 267 266 265 267 267 265 265 266 266 266 267 267 267 267 266 266 267 265 265 264 260 261 266 268 265 262 264 266 267 265 261 259 258 258
290 288 284 284 280 276 272 268 257 256 252 256 256 258 260 262 264 266 266 266 265 264 264 263 262 260 256 258 261 264 266 269 269 268 263 264 265 266 267 266 264 261 258 257
288 287 284 283 281 275 273 271 266 256 248 252 250 246 246 249 255 258 258 259 259 261 262 261 258 256 257 260 261 265 264 263 257 259 262 263 264 266 265 263 263 262 259 258
287 286 283 281 280 277 273 271 267 264 257 250 249 249 253 248 247 245 240 242 243 244 245 246 247 249 246 242 252 257 254 263 264 258 257 258 257 258 260 263 265 267 266 261
285 284 284 284 282 278 274 272 268 264 263 258 260 256 259 265 268 265 251 256 254 254 256 259 258 258 258 259 259 260 258 256 258 257 255 255 257 261 263 264 265 264 263 261
287 288 289 287 281 277 278 276 273 270 268 269 268 270 273 275 277 278 277 279 279 278 276 275 275 275 272 269 267 262 261 262 263 266 263 267 267 267 262 261 261 258 257 260
293 293 292 288 283 281 284 282 278 273 271 271 272 271 270 271 269 269 269 270 271 272 273 272 273 271 270 268 268 267 267 268 270 270 269 268 265 264 262 262 264 262 264 267
287 285 281 282 282 285 285 281 281 279 276 275 276 277 276 276 277 276 275 274 273 273 271 272 272 273 274 274 273 273 271 270 270 270 269 269 271 270 267 267 263 263 264 266
278 278 281 284 287 288 289 289 286 283 282 281 279 278 279 279 277 279 279 280 280 280 279 279 278 277 276 276 276 276 275 275 274 274 274 272 271 269 268 266 265 265 264 259
278 280 283 287 290 290 289 288 289 288 288 286 285 284 283 282 280 279 279 277 278 279 278 277 276 277 278 277 276 275 276 276 276 276 275 274 273 272 272 270 270 268 268 266
290 292 295 296 297 299 298 294 294 294 293 293 293 290 287 286 284 283 282 281 281 280 279 278 276 277 277 277 277 276 275 275 274 273 273 273 273 273 272 272 271 270 269 268
293 295 296 296 294 295 297 298 298 297 297 295 292 288 287 284 284 282 281 280 279 279 278 277 276 276 276 277 276 275 274 274 274 273 273 272 272 272 271 270 270 270 270 271
293 292 293 295 295 297 299 297 298 298 297 295 293 290 288 286 285 284 283 283 282 281 281 280 279 278 277 277 277 277 276 275 275 274 273 272 271 271 271 271 271 270 269 268
290 294 298 299 301 300 299 297 296 296 295 296 295 294 294 292 290 288 287 285 284 282 281 281 280 279 279 278 277 277 277 276 276 275 274 274 274 273 273 272 271 271 270 270